Regional Weather Roundup
Issued by NWS

Home | Current Version | Previous Version | Text Only | Print | Product List | Glossary Off
Versions: 1 2 3 4 5 6 7 8 9 10 11 12 13 14 15 16 17 18 19 20 21 22 23 24 25 26 27 28 29 30 31 32 33 34 35 36 37 38 39 40 41 42 43 44 45 46 47 48 49 50

523
ASUS43 KLMK 231010
RWRKY
KENTUCKY REGIONAL WEATHER ROUNDUP
NATIONAL WEATHER SERVICE LOUISVILLE KY
500 AM EST THU FEB 23 2017

NOTE "FAIR" INDICATES FEW OR NO CLOUDS BELOW 12,000 FEET
WITH NO SIGNIFICANT WEATHER AND/OR OBSTRUCTIONS TO VISIBILITY.

KYZ001>023-026-027-061>063-070>075-231100-
WESTERN AND SOUTH CENTRAL KENTUCKY

CITY           SKY/WX    TMP DP  RH WIND       PRES   REMARKS
PADUCAH        CLEAR     58  54  86 S5        29.78S
HENDERSON      PTCLDY    55  50  82 S6        29.78S
OWENSBORO      CLOUDY    57  55  93 S5        29.81R
HOPKINSVILLE   MOCLDY    57  57 100 CALM      29.82R
BOWLING GREEN  CLEAR     59  55  87 SW5       29.83R
GLASGOW        PTCLDY   N/A N/A N/A CALM      29.83S
$$

KYZ024-025-028>034-038-045-046-053-231100-
NORTH CENTRAL KENTUCKY

CITY           SKY/WX    TMP DP  RH WIND       PRES   REMARKS
LOUISVILLE/SDF MOCLDY    62  55  77 SW6       29.81R
LOUISVILLE/LOU CLOUDY    58  54  86 CALM      29.82R
FORT KNOX      CLOUDY    58  57  99 S6        29.80S
$$

KYZ035>037-039>044-047>052-055>060-089>105-231100-
NORTHEAST KENTUCKY

CITY           SKY/WX    TMP DP  RH WIND       PRES   REMARKS
LEXINGTON      MOCLDY    54  52  93 S6        29.84R
COVINGTON      CLOUDY    60  56  86 SW7       29.80S
FRANKFORT      CLOUDY    57  52  83 S5        29.82R
$$

KYZ054-064>069-076>088-106>120-231100-
SOUTHEAST KENTUCKY

CITY           SKY/WX    TMP DP  RH WIND       PRES   REMARKS
JACKSON        CLEAR     52  50  93 SW3       29.86R
LONDON         FOG       47  45  93 CALM      29.87R VSB 1/4
SOMERSET       CLEAR     52  52 100 CALM      29.88R FOG
MIDDLESBORO    FOG       45  45 100 CALM      29.90R VSB 1/2
MONTICELLO     FOG       48  48 100 N8        29.88R VSB 3/4
$$





USA.gov is the U.S. government's official web portal to all federal, state and local government web resources and services.